Location: Julian California
(33.0790°N, 116.6010°W)
Time: 18:46:01
(UTC-07:00)

Daily predictions for brighter satellites

Satellite Brightness Start Highest point End
(mag) Time Altitude Azimuth Time Altitude Azimuth Time Altitude Azimuth
Cosmos 1805 Rocket 3.7 19:43:17 10° N 19:47:32 54° E 19:51:44 10° SSE
Cosmos 1939 Rocket 4.4 19:48:22 10° ESE 19:51:01 18° ENE 19:53:41 10° NNE
Envisat 3.3 19:47:41 10° SE 19:52:30 47° ENE 19:57:21 10° N
ERS-2 3.2 19:50:47 10° SE 19:53:56 28° ENE 19:57:05 10° NNE
Cosmos 1980 4.2 19:48:48 10° S 19:53:58 38° ESE 19:59:09 10° NE
Cosmos 1455 2.8 19:55:24 10° SSE 19:58:54 36° E 20:02:25 10° NNE
Cosmos 2251 Rocket 3.7 19:54:42 10° N 20:00:00 59° ENE 20:05:15 10° SSE
NOSS 3 (A) 4.3 19:59:16 10° SSW 20:02:00 61° ESE 20:04:47 10° NE
YAOGAN 6 3.8 19:59:16 10° SE 20:02:14 25° ENE 20:05:14 10° NNE
SL-8 R/B 4.1 19:59:10 10° WSW 20:03:54 66° NW 20:08:40 10° NE
Meteor 2-15 4.5 19:57:58 10° N 20:04:03 65° E 20:10:04 10° SSE
CZ-2D R/B 3.2 20:01:15 10° SSE 20:04:59 63° ENE 20:08:45 10° N
Resurs 01 Rocket 2.7 20:03:07 10° SE 20:06:46 27° ENE 20:10:29 10° NNE
Cosmos 2333 Rocket 2.2 20:01:29 10° SSW 20:07:09 86° ESE 20:12:49 10° NNE
Cosmos 2154 Rocket 4.0 20:01:03 10° S 20:07:18 80° E 20:13:32 10° N
Cosmos 1844 Rocket 2.7 20:04:12 10° NNW 20:09:52 77° ENE 20:15:30 10° SSE
Meteor 2-21 4.5 20:05:20 10° S 20:11:27 89° E 20:17:39 10° N
Cosmos 1892 2.8 20:08:15 10° N 20:12:03 53° E 20:15:49 10° SSE
COSMOS 2428 3.9 20:06:50 10° SW 20:12:20 48° WNW 20:17:51 10° N
OAO 2 Rocket 3.4 20:08:42 10° WNW 20:13:57 83° SSW 20:18:01 16° ESE
HJ-1C 3.8 20:10:44 10° S 20:14:01 63° W 20:17:21 10° NNW
Meteor 1-27 4.2 20:09:41 10° S 20:15:21 64° E 20:20:57 10° NNE
Cosmos 2219 Rocket 2.7 20:11:42 10° SSW 20:17:18 64° WNW 20:22:54 10° NNE
NOSS 0 Rocket 3.9 20:13:57 10° SSW 20:20:05 79° ESE 20:26:17 10° NNE
Cosmos 1844 3.7 20:14:31 10° NNW 20:20:13 73° ENE 20:25:53 10° SSE
Cosmos 2237 Rocket 2.1 20:15:26 10° S 20:20:57 62° ESE 20:26:29 10° NNE
Centaur D-1A AC-31 3.3 19:54:14 10° WSW 20:21:21 41° S 20:25:38 18° ESE
deb Centaur AC-2 4.3 20:18:27 10° W 20:22:38 53° S 20:25:32 20° ESE
Genesis I 4.2 20:19:02 10° N 20:22:42 32° NE 20:24:40 21° ESE
Sakura Rocket 3.5 20:17:52 10° WSW 20:22:53 48° S 20:25:21 21° ESE
Cosmos 220 Rocket 4.3 20:21:41 10° N 20:25:49 44° ENE 20:28:19 21° SE
Aureole 2 4.3 20:24:39 10° SSW 20:27:43 70° WNW 20:30:38 10° NNE
Cosmos 1666 Rocket 3.6 20:23:58 10° N 20:28:26 82° W 20:32:51 10° S
Cosmos 1151 Rocket 3.1 20:24:42 10° SSE 20:28:47 49° E 20:32:54 10° NNE
OAO 3 Copernicus 4.3 20:24:26 10° WSW 20:29:24 65° SSE 20:33:07 18° E
Cosmos 962 Rocket 4.4 20:24:26 10° S 20:30:32 85° E 20:36:43 10° N
Cosmos 2341 Rocket 4.0 20:25:59 10° S 20:32:21 85° E 20:38:42 10° N
Thor Agena Rocket 3.9 20:28:17 10° N 20:33:32 72° WNW 20:38:46 10° SSW
Cosmos 1933 Rocket 4.2 20:30:25 10° NNE 20:34:25 35° E 20:35:57 26° ESE
USA 186 0.7 20:34:33 51° S 20:34:59 87° W 20:37:14 10° NNW
Spot 2 Rocket 3.9 20:32:05 20° SE 20:35:15 44° ENE 20:40:04 10° N
Cosmos 2278 Rocket 2.8 20:30:00 10° N 20:35:16 39° ENE 20:38:03 24° ESE
Cosmos 2218 Rocket 4.3 20:29:28 10° SSE 20:35:26 46° E 20:41:28 10° NNE
Sich 1 3.6 20:31:29 10° NNW 20:35:40 57° W 20:39:51 10° S
Resurs 1-3 3.6 20:34:07 18° SSE 20:37:18 64° ENE 20:41:38 10° N
SL-24 R/B - RUBIN 2 4.2 20:34:50 10° NW 20:39:02 51° WSW 20:42:41 14° S
ATLAS 2A CENTAUR R/B 3.7 20:35:35 10° W 20:39:25 19° SW 20:40:33 16° S
ATLAS 2AS CENTAUR R/B 3.0 20:31:50 10° NNW 20:39:34 64° ENE 20:44:15 23° SE
ASTRO E2 3.0 20:39:52 10° WSW 20:43:44 47° SSE 20:44:45 37° ESE
Cosmos 2366 rocket 4.2 20:39:27 10° SSE 20:45:22 49° E 20:51:22 10° NNE
Cosmos 1825 2.7 20:44:15 10° NNE 20:47:47 37° E 20:47:58 37° E
SL-8 Rocket 3.9 20:47:28 10° S 20:53:46 81° E 21:00:03 10° N
Cosmos 1633 Rocket 4.3 20:55:19 10° NNW 20:59:23 40° W 21:03:27 10° SSW
Cosmos 1515 Rocket 4.4 21:02:47 10° SSW 21:07:06 50° W 21:11:27 10° N
ERS-1 Rocket 4.2 21:10:03 25° ENE 21:10:03 25° ENE 21:13:41 10° NNE
ARGOS 3.6 21:10:53 39° E 21:11:22 40° ENE 21:16:20 10° N
SL-16 R/B 2.1 21:06:22 10° S 21:11:57 67° ESE 21:17:33 10° NNE
Cosmos 407 Rocket 4.1 21:13:20 10° N 21:17:56 38° ENE 21:17:56 38° ENE
Meteor 2-10 Rocket 3.6 21:17:22 25° S 21:20:51 87° E 21:26:41 10° N
USA 267 4.0 21:14:48 10° ENE 21:23:21 32° S 21:27:04 10° SSW
Cosmos 1408 3.2 21:19:50 10° NNW 21:23:24 51° W 21:23:34 51° WSW
USA 81 4.3 21:18:39 10° N 21:23:28 49° ENE 21:23:28 49° ENE
Cosmos 1869 4.0 21:23:04 33° SW 21:24:33 51° W 21:28:28 10° N
Cosmos 864 Rocket 4.5 21:19:24 14° S 21:24:43 79° W 21:30:52 10° N
H-2A R/B 2.6 21:26:31 39° NE 21:26:31 39° NE 21:30:35 10° N
Resurs 01 Rocket 3.8 21:40:41 14° SW 21:43:10 21° W 21:46:34 10° NW
Cosmos 1452 Rocket 4.5 21:49:32 36° NNE 21:49:32 36° NNE 21:52:38 10° NNE
Cosmos 2344 3.4 21:40:33 10° SSW 21:48:17 82° ESE 21:56:14 10° NNE
Cosmos 2297 3.9 21:43:28 10° NNW 21:48:36 61° NE 21:48:36 61° NE
MetOp-A 4.1 21:52:58 78° WNW 21:52:58 78° WNW 21:58:10 10° NNW
Cosmos 2369 Rocket 4.4 21:50:45 10° NNE 21:52:10 12° NE 21:52:10 12° NE
SPOT 5 4.5 21:56:16 23° NNE 21:56:16 23° NNE 21:58:13 10° N
Cosmos 1821 Rocket 4.2 22:06:44 63° NNE 22:06:44 63° NNE 22:12:03 10° N
Cosmos 1727 Rocket 4.4 22:02:51 10° NNW 22:08:48 54° W 22:09:41 50° WSW
ATLAS 5 CENTAUR R/B 4.4 22:13:55 10° N 22:17:12 17° NE 22:17:12 17° NE
Cosmos 2278 Rocket 4.0 22:14:41 10° NW 22:19:02 23° W 22:19:56 22° WSW
ATLAS 2AS CENTAUR R/B 4.5 22:24:20 10° WNW 22:29:46 22° WSW 22:31:43 20° SW
ATLAS 2A CENTAUR R/B 4.0 22:38:15 10° WSW 22:50:45 48° SW 22:50:45 48° SW
CZ-4C R/B 4.0 23:00:47 26° NNW 23:00:47 26° NNW 23:03:58 10° NNE
Cosmos 1943 Rocket 4.3 22:57:06 10° N 22:58:56 19° NNE 22:58:56 19° NNE
USA 267 4.1 22:57:44 10° NNE 23:03:53 45° NW 23:05:27 39° WNW
H-2A R/B 4.5 23:07:08 15° WNW 23:07:08 15° WNW 23:08:46 10° NW
Terra 4.4 23:10:21 17° NNW 23:10:21 17° NNW 23:11:25 10° NNW
Cosmos 2369 Rocket 4.4 23:32:11 10° NNW 23:33:58 21° NNW 23:33:58 21° NNW
